Location: Croisilles
(50.1998°N, 2.8793°E)
Time: 20:22:09
(UTC+00:00)

Cosmos 2344 - Pass Details

Date: 21 January 2021
Orbit: 1243 x 2999 km, 63.3° (Epoch: 01 March)

Event Time Altitude Azimuth Distance (km) Brightness Sun altitude
Rises 18:30:43 0° 313° (NW) 4,439 7.0 -19.9°
Reaches altitude 10° 18:33:19 10° 316° (NW) 3,583 6.4 -20.3°
Maximum altitude 18:42:11 72° 42° (NE) 1,848 4.2 -21.7°
Enters shadow 18:51:01 21° 123° (ESE) 3,810 5.6 -23.1°
